Regional Weather Roundup
Issued by NWS

Home | Current Version | Previous Version | Text Only | Print | Product List | Glossary Off
Versions: 1 2 3 4 5 6 7 8 9 10 11 12 13 14 15 16 17 18 19 20 21 22 23 24 25 26 27 28 29 30 31 32 33 34 35 36 37 38 39 40 41 42 43 44 45 46 47 48 49 50

000
ASUS45 KSLC 291810
RWRUT

UTAH REGIONAL WEATHER ROUNDUP
NATIONAL WEATHER SERVICE SALT LAKE CITY UT
1200 PM MDT SAT AUG 29 2015

UTZ001>011-023>025-291900-

NORTHERN UTAH

CITY           SKY/WX    TMP DP  RH WIND       PRES   REMARKS
BRIGHAM CITY   MOSUNNY   86  34  15 SW6       30.07F
HILL AFB       PTSUNNY   89  46  22 S16G24    30.10F
LOGAN          SUNNY     84  45  25 W7        30.08F
OGDEN          MOSUNNY   91  43  18 SE14      30.07F
PROVO AIRPORT  MOSUNNY   88  46  23 CALM      30.13F
SALT LAKE CITY PTSUNNY   92  41  17 SE17G25   30.06F
VERNAL         SUNNY     79  38  22 SE5       30.23F
WENDOVER       CLOUDY    82  41  23 NE10      30.04F
HEBER CITY     SUNNY     82  41  23 CALM      30.20F
WEST JORDAN    SUNNY     90  43  19 SE16      30.11F

$$

UTZ012>022-026-027-291900-

SOUTHERN/CENTRAL UTAH

CITY           SKY/WX    TMP DP  RH WIND       PRES   REMARKS
BLANDING       SUNNY     80  43  26 E3        30.38F
BRYCE CANYON   SUNNY     76  41  28 S14       30.41S
CEDAR CITY     MOSUNNY   87  40  19 S13G23    30.20F
DELTA          MOSUNNY   89  40  17 S9G17     30.13S
HANKSVILLE     SUNNY     82  39  21 E3        30.20S
MILFORD        MOSUNNY   90  44  20 S14       30.14F
MOAB/CYNLANDS  SUNNY     86  42  21 MISG      30.17
PRICE          SUNNY     81  36  19 S6        30.28F
ST GEORGE      CLEAR     90  52  27 NW3       30.03F
KANAB          SUNNY     88  48  25 CALM      30.24S

$$

REGIONAL REPORTS     COLORADO/ARIZONA

CITY           SKY/WX    TMP DP  RH WIND       PRES   REMARKS
CRAIG, CO      SUNNY     81  41  24 CALM      30.30F
GRAND JUNCTION SUNNY     80  45  28 SE8       30.22F
RIFLE          SUNNY     78  47  33 CALM      30.27F
MONTROSE       SUNNY     80  48  32 N8        30.30F
CORTEZ         SUNNY     85  46  25 S13       30.30F
PAGE, AZ       SUNNY     85  47  26 N6        30.15F
GRAND CANYON   MOSUNNY   84  41  21 S12G22    30.33S
KINGMAN        SUNNY     96  50  20 SE9       30.05F HX  93
FLAGSTAFF      MOSUNNY   79  43  27 SW8       30.38S

$$

REGIONAL REPORTS    NEVADA/IDAHO/WYOMING

CITY           SKY/WX    TMP DP  RH WIND       PRES   REMARKS
LAS VEGAS, NV  MOSUNNY  101  45  15 S8        29.90S HX  97
ELY            MOSUNNY   83  44  25 S22G32    30.20S
ELKO           MOSUNNY   86  42  21 SW13G18   30.05F
POCATELLO, ID  PTSUNNY   92  40  16 S16G24    30.01S
EVANSTON, WY   MOSUNNY   82  36  19 SW17G28   30.30F
ROCK SPRINGS   SUNNY     81  34  18 VRB3      30.29F
KEMMERER       MOSUNNY   79  32  18 S6        30.32F

$$



USA.gov is the U.S. government's official web portal to all federal, state and local government web resources and services.